Time,TemperatureF,DewpointF,PressureIn,WindDirection,WindDirectionDegrees,WindSpeedMPH,WindSpeedGustMPH,Humidity,HourlyPrecipIn,Conditions,Clouds,dailyrainin,SoftwareType,DateUTC
2013-03-05 00:12:00,36.0,32.0,30.12,SW,226,0.0,0.0,84,0.00,,,0.00,weatherlink.com 1.10,2013-03-05 05:12:00,
2013-03-05 00:27:00,36.2,32.0,30.11,SW,226,0.0,0.0,85,0.00,,,0.00,weatherlink.com 1.10,2013-03-05 05:27:00,
2013-03-05 00:42:00,36.7,33.0,30.11,SW,227,0.0,1.0,87,0.00,,,0.00,weatherlink.com 1.10,2013-03-05 05:42:00,
2013-03-05 00:57:00,37.6,34.0,30.11,SW,226,0.0,0.0,85,0.00,,,0.00,weatherlink.com 1.10,2013-03-05 05:57:00,
2013-03-05 01:12:00,37.9,34.0,30.10,SW,226,0.0,0.0,85,0.00,,,0.00,weatherlink.com 1.10,2013-03-05 06:12:00,
2013-03-05 01:27:00,38.1,34.0,30.11,SW,226,0.0,0.0,84,0.00,,,0.00,weatherlink.com 1.10,2013-03-05 06:27:00,
2013-03-05 01:42:00,38.2,34.0,30.11,West,275,1.0,1.0,85,0.00,,,0.00,weatherlink.com 1.10,2013-03-05 06:42:00,
2013-03-05 01:57:00,38.1,34.0,30.10,WNW,298,0.0,0.0,85,0.00,,,0.00,weatherlink.com 1.10,2013-03-05 06:57:00,
2013-03-05 02:12:00,37.9,34.0,30.11,WNW,297,0.0,0.0,86,0.00,,,0.00,weatherlink.com 1.10,2013-03-05 07:12:00,
2013-03-05 02:27:00,37.9,34.0,30.11,WNW,298,0.0,0.0,87,0.00,,,0.00,weatherlink.com 1.10,2013-03-05 07:27:00,
2013-03-05 02:42:00,38.2,35.0,30.11,WNW,298,0.0,0.0,88,0.00,,,0.00,weatherlink.com 1.10,2013-03-05 07:42:00,
2013-03-05 02:57:00,39.3,36.0,30.11,WNW,296,0.0,1.0,86,0.00,,,0.00,weatherlink.com 1.10,2013-03-05 07:57:00,
2013-03-05 03:12:00,39.2,35.0,30.11,WNW,296,0.0,0.0,86,0.00,,,0.00,weatherlink.com 1.10,2013-03-05 08:12:00,
2013-03-05 03:27:00,39.2,36.0,30.11,WNW,296,0.0,1.0,87,0.00,,,0.00,weatherlink.com 1.10,2013-03-05 08:27:00,
2013-03-05 03:42:00,38.4,35.0,30.11,WNW,296,0.0,0.0,87,0.00,,,0.00,weatherlink.com 1.10,2013-03-05 08:42:00,
2013-03-05 03:57:00,38.4,35.0,30.11,WNW,295,0.0,1.0,88,0.00,,,0.00,weatherlink.com 1.10,2013-03-05 08:57:00,
2013-03-05 04:12:00,38.1,35.0,30.11,WNW,295,0.0,0.0,89,0.00,,,0.00,weatherlink.com 1.10,2013-03-05 09:12:00,
2013-03-05 04:27:00,38.0,35.0,30.12,WNW,294,0.0,0.0,89,0.00,,,0.00,weatherlink.com 1.10,2013-03-05 09:27:00,
2013-03-05 04:42:00,38.0,35.0,30.11,SSE,163,0.0,1.0,89,0.00,,,0.00,weatherlink.com 1.10,2013-03-05 09:42:00,
2013-03-05 04:57:00,37.5,35.0,30.12,SSE,163,0.0,0.0,90,0.00,,,0.00,weatherlink.com 1.10,2013-03-05 09:57:00,
2013-03-05 05:12:00,37.0,35.0,30.12,SSE,163,0.0,0.0,91,0.00,,,0.00,weatherlink.com 1.10,2013-03-05 10:12:00,
2013-03-05 05:27:00,37.0,35.0,30.12,SSE,163,0.0,0.0,92,0.00,,,0.00,weatherlink.com 1.10,2013-03-05 10:27:00,
2013-03-05 05:42:00,36.8,35.0,30.13,SSE,163,0.0,0.0,92,0.00,,,0.00,weatherlink.com 1.10,2013-03-05 10:42:00,
2013-03-05 05:57:00,36.7,35.0,30.13,SSE,163,0.0,0.0,93,0.00,,,0.00,weatherlink.com 1.10,2013-03-05 10:57:00,
2013-03-05 06:12:00,36.5,35.0,30.12,SSE,163,0.0,0.0,93,0.00,,,0.00,weatherlink.com 1.10,2013-03-05 11:12:00,
2013-03-05 06:27:00,37.0,35.0,30.12,SSE,163,0.0,0.0,93,0.00,,,0.00,weatherlink.com 1.10,2013-03-05 11:27:00,
2013-03-05 06:42:00,36.5,35.0,30.13,SSE,163,0.0,0.0,94,0.00,,,0.00,weatherlink.com 1.10,2013-03-05 11:42:00,
2013-03-05 06:57:00,37.4,36.0,30.12,SSE,160,0.0,0.0,94,0.00,,,0.00,weatherlink.com 1.10,2013-03-05 11:57:00,
2013-03-05 07:12:00,38.8,38.0,30.11,SSE,160,0.0,0.0,95,0.00,,,0.00,weatherlink.com 1.10,2013-03-05 12:12:00,
2013-03-05 07:28:00,40.9,40.0,30.11,SSE,162,0.0,1.0,95,0.00,,,0.00,weatherlink.com 1.10,2013-03-05 12:28:00,
2013-03-05 07:43:00,42.4,41.0,30.12,SSE,161,0.0,1.0,94,0.00,,,0.00,weatherlink.com 1.10,2013-03-05 12:43:00,
2013-03-05 07:58:00,43.8,42.0,30.12,South,170,0.0,1.0,93,0.00,,,0.00,weatherlink.com 1.10,2013-03-05 12:58:00,
2013-03-05 08:13:00,45.8,43.0,30.12,West,265,0.0,2.0,90,0.00,,,0.00,weatherlink.com 1.10,2013-03-05 13:13:00,
2013-03-05 08:28:00,47.2,44.0,30.12,WSW,244,0.0,1.0,87,0.00,,,0.00,weatherlink.com 1.10,2013-03-05 13:28:00,
2013-03-05 08:43:00,50.3,45.0,30.11,SW,236,0.0,3.0,82,0.00,,,0.00,weatherlink.com 1.10,2013-03-05 13:43:00,
2013-03-05 08:58:00,52.6,45.0,30.11,West,268,1.0,5.0,74,0.00,,,0.00,weatherlink.com 1.10,2013-03-05 13:58:00,
2013-03-05 09:13:00,55.2,43.0,30.10,SW,233,1.0,9.0,63,0.00,,,0.00,weatherlink.com 1.10,2013-03-05 14:13:00,
2013-03-05 09:28:00,56.9,43.0,30.09,SW,216,4.0,4.0,60,0.00,,,0.00,weatherlink.com 1.10,2013-03-05 14:28:00,
2013-03-05 09:58:00,60.1,43.0,30.07,WSW,255,6.0,7.0,53,0.00,,,0.00,weatherlink.com 1.10,2013-03-05 14:58:00,
2013-03-05 10:13:00,61.6,40.0,30.06,South,187,5.0,9.0,45,0.00,,,0.00,weatherlink.com 1.10,2013-03-05 15:13:00,
2013-03-05 10:28:00,62.5,38.0,30.06,WSW,238,4.0,10.0,41,0.00,,,0.00,weatherlink.com 1.10,2013-03-05 15:28:00,
2013-03-05 10:43:00,63.4,39.0,30.05,West,275,3.0,9.0,40,0.00,,,0.00,weatherlink.com 1.10,2013-03-05 15:43:00,
2013-03-05 10:58:00,63.9,44.0,30.05,SSE,167,6.0,9.0,49,0.00,,,0.00,weatherlink.com 1.10,2013-03-05 15:58:00,
2013-03-05 11:14:00,65.1,47.0,30.05,SE,130,2.0,8.0,52,0.00,,,0.00,weatherlink.com 1.10,2013-03-05 16:14:00,
2013-03-05 11:29:00,64.9,47.0,30.04,SSE,151,3.0,9.0,52,0.00,,,0.00,weatherlink.com 1.10,2013-03-05 16:29:00,
2013-03-05 11:44:00,64.2,43.0,30.04,WSW,239,3.0,10.0,47,0.00,,,0.00,weatherlink.com 1.10,2013-03-05 16:44:00,
2013-03-05 11:59:00,65.4,43.0,30.02,West,272,1.0,8.0,45,0.00,,,0.00,weatherlink.com 1.10,2013-03-05 16:59:00,
2013-03-05 12:14:00,64.7,46.0,30.01,SE,130,8.0,11.0,51,0.00,,,0.00,weatherlink.com 1.10,2013-03-05 17:14:00,
2013-03-05 12:29:00,65.6,45.0,30.00,SW,230,3.0,14.0,47,0.00,,,0.00,weatherlink.com 1.10,2013-03-05 17:29:00,
2013-03-05 12:44:00,65.0,45.0,29.99,South,180,8.0,9.0,48,0.00,,,0.00,weatherlink.com 1.10,2013-03-05 17:44:00,
2013-03-05 12:59:00,64.2,44.0,29.99,SE,140,4.0,8.0,49,0.00,,,0.00,weatherlink.com 1.10,2013-03-05 17:59:00,
2013-03-05 13:14:00,62.8,46.0,29.98,South,174,3.0,7.0,54,0.00,,,0.00,weatherlink.com 1.10,2013-03-05 18:14:00,
2013-03-05 13:29:00,62.3,45.0,29.97,SSW,203,6.0,6.0,54,0.00,,,0.00,weatherlink.com 1.10,2013-03-05 18:29:00,
2013-03-05 13:59:00,62.2,45.0,29.95,SSE,168,1.0,6.0,54,0.00,,,0.00,weatherlink.com 1.10,2013-03-05 18:59:00,
2013-03-05 14:14:00,63.0,44.0,29.94,SSW,198,2.0,7.0,51,0.00,,,0.00,weatherlink.com 1.10,2013-03-05 19:14:00,
2013-03-05 14:29:00,63.9,44.0,29.93,West,267,1.0,9.0,49,0.00,,,0.00,weatherlink.com 1.10,2013-03-05 19:29:00,
2013-03-05 14:44:00,65.0,45.0,29.92,SSE,153,3.0,7.0,48,0.00,,,0.00,weatherlink.com 1.10,2013-03-05 19:44:00,
2013-03-05 14:59:00,65.0,45.0,29.92,SW,225,2.0,6.0,48,0.00,,,0.00,weatherlink.com 1.10,2013-03-05 19:59:00,
2013-03-05 15:14:00,64.8,44.0,29.92,West,262,9.0,9.0,48,0.00,,,0.00,weatherlink.com 1.10,2013-03-05 20:14:00,
2013-03-05 15:29:00,64.3,45.0,29.91,SSW,210,6.0,8.0,50,0.00,,,0.00,weatherlink.com 1.10,2013-03-05 20:29:00,
2013-03-05 15:44:00,65.0,45.0,29.90,SW,234,3.0,9.0,49,0.00,,,0.00,weatherlink.com 1.10,2013-03-05 20:44:00,
2013-03-05 15:59:00,65.5,47.0,29.89,SSW,213,5.0,8.0,51,0.00,,,0.00,weatherlink.com 1.10,2013-03-05 20:59:00,
2013-03-05 16:14:00,65.1,47.0,29.88,South,170,4.0,9.0,53,0.00,,,0.00,weatherlink.com 1.10,2013-03-05 21:14:00,
2013-03-05 16:29:00,64.0,47.0,29.88,SW,218,5.0,12.0,54,0.00,,,0.00,weatherlink.com 1.10,2013-03-05 21:29:00,
2013-03-05 16:44:00,62.8,47.0,29.88,WSW,257,6.0,9.0,57,0.00,,,0.00,weatherlink.com 1.10,2013-03-05 21:44:00,
2013-03-05 16:59:00,62.0,47.0,29.88,SW,218,2.0,9.0,59,0.00,,,0.00,weatherlink.com 1.10,2013-03-05 21:59:00,
2013-03-05 17:14:00,61.1,47.0,29.87,WSW,246,1.0,13.0,60,0.00,,,0.00,weatherlink.com 1.10,2013-03-05 22:14:00,
2013-03-05 17:29:00,60.5,45.0,29.87,WSW,243,1.0,7.0,58,0.00,,,0.00,weatherlink.com 1.10,2013-03-05 22:29:00,
2013-03-05 17:44:00,60.1,46.0,29.86,SSE,163,8.0,9.0,59,0.00,,,0.00,weatherlink.com 1.10,2013-03-05 22:44:00,
2013-03-05 17:59:00,59.7,47.0,29.86,SW,222,4.0,10.0,63,0.00,,,0.00,weatherlink.com 1.10,2013-03-05 22:59:00,
2013-03-05 18:14:00,59.3,47.0,29.86,WSW,253,4.0,7.0,65,0.00,,,0.00,weatherlink.com 1.10,2013-03-05 23:14:00,
2013-03-05 18:29:00,58.9,47.0,29.86,SSW,212,2.0,7.0,65,0.00,,,0.00,weatherlink.com 1.10,2013-03-05 23:29:00,
2013-03-05 18:44:00,58.4,47.0,29.84,WSW,248,2.0,8.0,65,0.00,,,0.00,weatherlink.com 1.10,2013-03-05 23:44:00,
2013-03-05 18:59:00,58.0,46.0,29.84,SW,227,4.0,8.0,65,0.00,,,0.00,weatherlink.com 1.10,2013-03-05 23:59:00,
2013-03-05 19:14:00,58.0,46.0,29.83,SW,230,5.0,7.0,65,0.00,,,0.00,weatherlink.com 1.10,2013-03-06 00:14:00,
2013-03-05 19:29:00,58.5,47.0,29.82,WSW,244,2.0,9.0,65,0.00,,,0.00,weatherlink.com 1.10,2013-03-06 00:29:00,
2013-03-05 19:45:00,59.1,48.0,29.80,SW,231,4.0,8.0,66,0.00,,,0.00,weatherlink.com 1.10,2013-03-06 00:45:00,
2013-03-05 20:00:00,59.6,49.0,29.79,SW,217,3.0,7.0,68,0.00,,,0.00,weatherlink.com 1.10,2013-03-06 01:00:00,
2013-03-05 20:15:00,60.1,50.0,29.76,SW,227,4.0,11.0,70,0.00,,,0.00,weatherlink.com 1.10,2013-03-06 01:15:00,
2013-03-05 20:30:00,60.2,51.0,29.75,WSW,237,4.0,9.0,72,0.00,,,0.00,weatherlink.com 1.10,2013-03-06 01:30:00,
2013-03-05 20:45:00,59.5,52.0,29.75,East,90,2.0,9.0,76,0.00,,,0.00,weatherlink.com 1.10,2013-03-06 01:45:00,
2013-03-05 21:00:00,59.3,53.0,29.74,SW,234,5.0,13.0,79,0.00,,,0.00,weatherlink.com 1.10,2013-03-06 02:00:00,
2013-03-05 21:15:00,59.6,53.0,29.72,SSW,211,3.0,11.0,78,0.00,,,0.00,weatherlink.com 1.10,2013-03-06 02:15:00,
2013-03-05 21:30:00,60.6,53.0,29.72,WSW,246,4.0,15.0,75,0.00,,,0.00,weatherlink.com 1.10,2013-03-06 02:30:00,
2013-03-05 22:00:00,62.4,54.0,29.72,SSE,161,7.0,19.0,73,0.00,,,0.00,weatherlink.com 1.10,2013-03-06 03:00:00,
2013-03-05 22:15:00,62.9,53.0,29.72,South,174,6.0,11.0,71,0.00,,,0.00,weatherlink.com 1.10,2013-03-06 03:15:00,
2013-03-05 22:30:00,62.2,55.0,29.71,West,265,8.0,13.0,77,0.01,,,0.01,weatherlink.com 1.10,2013-03-06 03:30:00,
2013-03-05 22:45:00,60.2,55.0,29.69,South,171,14.0,14.0,84,0.02,,,0.02,weatherlink.com 1.10,2013-03-06 03:45:00,
2013-03-05 23:00:00,61.0,56.0,29.67,SW,221,4.0,14.0,82,0.02,,,0.02,weatherlink.com 1.10,2013-03-06 04:00:00,
2013-03-05 23:15:00,61.6,56.0,29.66,WSW,257,4.0,14.0,81,0.02,,,0.02,weatherlink.com 1.10,2013-03-06 04:15:00,
2013-03-05 23:30:00,61.9,56.0,29.66,SW,234,11.0,12.0,81,0.01,,,0.02,weatherlink.com 1.10,2013-03-06 04:30:00,
2013-03-05 23:45:00,61.9,55.0,29.66,WSW,240,5.0,10.0,79,0.00,,,0.02,weatherlink.com 1.10,2013-03-06 04:45:00,